CZ-3C DEB, 40855

Orbit data source: Space-Track

CZ-3C DEB, 40855 is space debris in HEO originally from a launch on Fri, 24 Feb 2012 UTC launched from the Xichang Space Center, China (XSC). Debris objects in space refer to the collection of defunct objects orbiting the Earth. Examples of debris include non-operational satellites, rocket bodies, and fragments generated from explosions, collisions, or faulty payload assembly.

Loading next visibility...
Identifier
40855, 2012-008V
Orbit
HEO
Country
Flag of CNCN / PRC
Related business
Manufacturer
CALT
Mission
Spacecraft
Bus & Motor
Unknown
Mass
Unknown
Launch date (UTC)
2012-02-24 (14 years ago)
Launch vehicle
Unknown
Launch site
Xichang Space Center, China (XSC)
Object type
Payload
Rocket body
Debris
Shape & HBR
Unknown shape, 0.2 m
Radar Cross Section
Medium (>0.1 m² and <1 m²)

Expand to show TLE details & history
Last TLE update: 6 days ago

TLE from 6 days ago
0 CZ-3C DEB
1 40855U 12008V   26121.00721458 -.00000035  00000-0  20553-2 0  9998
2 40855  22.7313 351.8732 7059137 186.7270 356.6656  2.32114827 97243
Epoch: 2026-05-01T00:10Z
TLE epoch observation values (Epoch: 2026-05-01T00:10:23.339Z)
Latitude
8.07118°
Longitude
-69.35045°
Altitude
1,062.151 km
Speed
9.518 km/s
True Right ascension
10h 08m 46s
True Declination
8° 01' 32"
Sunlit
Object was in daylight at epoch
Visualization orbit readout
Latitude
Unknown
Longitude
Unknown
Altitude
Unknown
Speed
Unknown
Apparent Right ascension
Unknown
Apparent Declination
Unknown
Sunlit
N/A
Visualization observer readout
Local Sidereal Time
17:55:02
Azimuth
Unknown
Elevation
Unknown
Doppler factor
Unknown
Orbital elements
Apogee altitude
34,733.288 km
Perigee altitude
709.154 km
Semi-major axis
24,099.358 km
Eccentricity
0.70591
Inclination
22.7313°
RAAN
351.8732°
Arg. of periapsis
186.727°
True anomaly
333.49785°
Mean anomaly
356.6656°
Eccentric anomaly
348.83129°
Mean motion
0.58014 °/min
Orbital period
620.54 mins
BSTAR
0.0020553
Loading maneuver chart data...
Computing Atmospheric mass density...
Loading historical data...
Loading historical data...
Loading historical data...
Loading historical data...
Loading historical data...
Loading historical data...
Loading historical data...

Documentation

Showing up to 5 results
|